COSMOS 2516 [GLONASS-M] 
1 41554U 16032A   19266.34691090  .00000074  00000-0  00000+0 0  9997
2 41554  64.2238 276.2336 0015186 222.2909  19.4800  2.13101798 25823
FREGAT R/B              
1 41555U 16032B   19265.92235074  .00000074  00000-0  00000+0 0  9997
2 41555  64.1542 278.2407 0111600 121.1027 240.0448  2.08091114 25204